Wind_Speed
82 84 89 93 86 83 80 77 72 68 72 76 78 80 81 80 81 80 83 85 90 93 98 99 101 101 101 102 104 110 120 125 133 137 133 131 128 124
85 89 93 91 86 83 81 79 77 76 75 79 82 84 86 87 89 90 93 94 95 96 101 106 107 106 102 99 101 103 105 114 122 127 135 137 134 131
88 92 96 90 85 83 82 81 82 82 82 84 90 92 94 95 97 100 106 105 102 100 102 106 107 105 103 96 93 96 98 99 105 116 122 130 136 137
92 94 95 88 86 84 82 83 84 86 88 90 96 99 103 105 106 106 111 110 103 98 100 102 102 98 93 90 86 85 90 92 94 98 107 117 124 131
93 98 91 87 86 85 84 85 88 91 95 99 102 106 107 108 107 112 117 108 94 87 89 90 90 88 85 81 78 80 84 89 90 92 93 99 110 116
95 95 87 87 85 85 86 87 90 93 99 105 108 106 107 107 114 109 117 103 92 79 71 73 79 81 79 79 78 78 82 86 92 94 91 90 92 102
98 89 87 86 86 86 86 89 91 95 100 104 107 109 110 113 119 118 110 103 89 75 68 67 68 70 73 74 73 74 78 82 86 90 89 85 85 88
92 87 85 85 86 87 89 90 92 95 100 105 110 111 114 118 121 118 107 97 87 77 65 65 58 60 61 64 68 72 72 75 81 84 86 82 80 81
88 86 85 84 85 87 89 91 94 100 105 109 112 114 115 119 116 115 104 92 83 71 62 62 55 55 52 57 61 64 67 70 73 77 80 78 77 77
86 85 84 83 85 87 89 91 94 100 107 113 117 117 122 121 115 107 94 83 77 67 56 56 49 51 49 50 54 56 59 63 65 69 73 75 71 71
84 84 83 83 85 87 88 91 95 100 107 115 118 121 125 123 114 102 88 75 70 64 54 46 44 50 43 44 46 49 51 55 59 63 68 69 69 66
84 83 82 83 85 86 88 90 93 99 105 111 116 125 126 123 115 99 82 69 60 60 53 47 38 42 49 34 41 41 44 48 52 56 61 65 66 64
84 83 82 84 85 86 88 91 94 98 106 112 119 125 122 117 110 95 83 67 56 51 49 47 42 37 39 42 34 38 39 41 45 49 54 60 59 60
83 82 82 84 85 86 89 92 96 101 109 114 123 124 118 109 99 88 78 68 55 48 47 45 41 37 38 34 34 32 36 36 38 43 48 53 56 54
81 80 81 83 85 88 90 93 98 103 108 116 122 122 114 106 91 80 73 64 54 45 41 42 41 36 34 33 31 29 31 34 34 39 44 46 47 48
80 80 81 82 85 87 90 94 99 104 110 117 122 117 110 102 88 76 67 59 54 49 39 36 37 35 33 29 28 28 28 31 32 34 38 42 46 48
79 80 81 84 86 89 92 96 100 105 113 118 122 113 105 95 84 74 65 58 50 46 43 36 31 32 30 28 26 26 26 28 29 31 35 39 42 42
79 80 82 83 86 89 92 97 102 107 114 119 117 109 100 90 79 71 64 55 50 43 39 36 33 27 28 26 23 24 23 26 27 28 32 36 39 39
78 80 82 83 86 90 94 98 102 109 113 120 113 105 97 87 77 68 63 54 48 41 35 35 33 27 24 24 22 21 21 24 26 27 29 33 35 39
79 80 82 85 88 92 96 99 104 111 114 120 110 102 96 86 76 69 59 54 47 41 34 31 31 28 23 21 20 20 21 22 24 26 28 31 34 37
80 81 84 86 90 93 97 101 106 113 117 118 107 100 92 84 77 67 58 50 44 39 35 31 29 26 22 20 19 19 21 22 23 25 27 30 32 35
81 82 85 89 92 95 98 103 109 113 119 116 105 97 90 82 74 65 58 49 43 37 33 31 27 25 22 19 18 19 20 22 23 24 27 29 31 34
83 85 88 92 94 97 101 106 111 115 121 112 102 94 88 80 72 62 55 48 41 37 31 29 27 24 22 19 18 18 19 21 23 25 27 30 32 34
Wind_Direction
306 310 311 311 311 310 308 306 304 301 302 303 303 302 302 302 301 299 298 295 294 292 286 281 277 272 268 265 262 257 253 251 248 246 244 244 244 243
309 310 311 312 311 309 307 305 304 303 304 302 300 301 301 304 305 306 304 300 296 291 286 281 278 275 272 268 264 262 258 253 250 248 246 243 243 243
309 310 312 312 309 307 305 305 304 304 304 302 302 303 304 306 306 306 305 303 298 295 286 281 278 276 274 272 267 263 261 258 254 250 247 246 243 242
308 309 312 310 308 306 305 303 303 302 303 302 301 302 304 306 307 307 305 305 303 295 286 283 280 279 276 272 267 263 259 258 256 254 250 247 245 242
307 310 311 308 306 306 305 304 303 304 304 304 303 304 306 308 310 310 309 310 303 292 286 284 281 278 274 271 267 261 257 255 254 252 251 248 245 243
307 310 308 305 305 306 306 305 304 304 305 306 307 309 311 313 314 314 315 313 309 297 292 284 279 276 273 269 263 258 254 252 252 251 250 247 246 243
308 308 307 306 308 307 307 306 305 305 306 308 311 313 314 316 315 316 320 316 310 303 301 289 280 275 271 269 264 259 254 251 251 253 254 250 245 243
308 307 306 308 309 309 308 307 306 307 309 311 313 314 315 316 317 321 320 317 313 308 303 293 285 278 272 267 262 259 254 251 250 251 253 252 247 243
307 306 307 310 309 309 308 307 308 309 312 314 315 315 316 316 321 324 322 318 313 309 303 296 291 283 274 269 263 259 256 252 250 249 250 252 249 245
306 306 309 310 308 309 309 308 309 312 313 315 316 317 319 321 325 324 321 318 312 309 304 298 294 284 279 270 265 260 257 253 249 248 247 248 249 245
305 307 309 309 309 309 310 311 312 313 315 316 317 319 320 323 326 325 324 320 314 310 307 300 295 289 282 276 269 263 257 253 249 246 245 247 247 246
306 308 310 309 309 311 312 313 313 314 315 317 319 320 322 325 327 326 325 323 317 312 309 305 299 291 289 277 274 267 261 255 250 246 243 244 244 243
308 310 309 310 311 312 313 313 313 315 317 320 322 322 323 327 328 325 324 324 319 313 309 306 304 295 284 285 273 269 262 257 250 246 242 241 242 240
308 309 309 311 313 313 313 315 316 318 321 323 323 322 324 328 328 326 324 322 320 316 312 306 302 296 288 282 278 269 263 257 250 244 240 239 239 238
308 308 310 311 314 315 316 317 319 322 323 324 324 323 326 329 329 327 324 321 318 317 313 305 301 298 289 284 278 271 261 257 249 244 241 239 239 236
307 308 310 313 315 316 317 319 321 323 324 326 325 325 328 330 330 328 325 323 321 318 314 307 299 296 292 286 278 272 261 254 248 241 238 234 231 231
307 309 312 315 316 317 319 321 323 324 326 328 327 326 329 331 330 329 327 324 323 320 315 309 299 295 290 286 279 268 260 251 245 238 234 232 230 227
308 311 315 316 316 317 319 321 323 325 328 328 327 327 330 332 331 330 327 325 324 322 315 308 303 295 289 284 277 266 255 248 243 235 231 228 226 223
308 312 315 316 316 317 319 321 324 326 329 330 328 328 330 333 332 331 328 325 324 321 315 306 302 298 290 283 273 263 253 243 239 232 227 224 220 219
308 312 315 315 316 317 320 322 325 328 331 332 329 330 332 334 333 331 329 325 324 321 316 308 301 299 293 282 272 259 249 240 234 228 223 220 218 216
307 311 314 315 316 319 320 322 326 330 333 332 329 331 333 334 333 331 328 326 324 320 316 312 304 298 293 282 271 258 245 238 231 225 221 218 215 213
306 310 313 315 317 320 321 323 327 332 333 332 330 331 332 333 333 331 328 327 324 321 316 312 304 296 291 282 269 257 245 237 231 223 219 217 213 212
305 309 312 314 317 320 321 324 328 333 333 331 330 332 333 333 332 330 328 326 324 321 317 311 304 295 289 282 268 254 243 233 227 220 216 215 212 207
Height
10659 10649 10639 10627 10614 10603 10594 10585 10580 10576 10564 10548 10538 10527 10519 10511 10504 10496 10485 10473 10459 10445 10432 10425 10420 10413 10412 10414 10415 10419 10426 10435 10446 10459 10469 10481 10494 10506
10641 10630 10619 10606 10594 10584 10573 10564 10555 10548 10543 10529 10518 10507 10496 10486 10474 10462 10450 10439 10428 10414 10398 10382 10374 10376 10376 10376 10378 10381 10386 10393 10402 10414 10427 10442 10456 10469
10622 10611 10599 10586 10575 10564 10553 10543 10532 10524 10518 10506 10490 10480 10469 10460 10449 10434 10415 10403 10391 10379 10359 10345 10339 10335 10333 10339 10341 10344 10350 10356 10363 10373 10385 10400 10416 10432
10604 10592 10579 10566 10556 10545 10535 10524 10514 10503 10494 10486 10468 10457 10441 10430 10419 10403 10384 10366 10353 10338 10318 10311 10300 10296 10299 10298 10302 10307 10312 10321 10328 10335 10345 10364 10371 10391
10587 10574 10560 10549 10538 10526 10515 10505 10493 10480 10468 10456 10447 10431 10418 10400 10389 10367 10339 10327 10309 10296 10288 10276 10265 10261 10259 10264 10268 10272 10276 10283 10295 10299 10308 10320 10336 10353
10569 10556 10543 10531 10520 10508 10496 10486 10473 10461 10446 10431 10417 10406 10387 10374 10347 10329 10311 10285 10269 10260 10256 10242 10233 10227 10229 10231 10233 10236 10241 10248 10254 10263 10275 10287 10301 10315
10552 10540 10526 10512 10500 10487 10478 10466 10454 10440 10426 10409 10392 10376 10357 10345 10322 10301 10276 10252 10240 10231 10223 10210 10206 10203 10201 10201 10204 10208 10213 10219 10226 10234 10245 10259 10271 10282
10533 10522 10510 10496 10482 10469 10455 10442 10431 10419 10404 10388 10367 10353 10335 10315 10292 10270 10251 10230 10214 10198 10198 10183 10183 10176 10175 10177 10177 10180 10187 10193 10200 10207 10216 10229 10243 10255
10516 10504 10492 10480 10466 10454 10439 10426 10411 10393 10377 10363 10347 10325 10312 10292 10274 10245 10220 10202 10187 10182 10174 10160 10159 10153 10155 10152 10153 10158 10163 10169 10177 10185 10193 10204 10216 10229
10500 10489 10478 10466 10453 10440 10426 10410 10396 10376 10356 10339 10318 10299 10277 10260 10245 10229 10208 10187 10167 10161 10157 10142 10141 10133 10133 10134 10134 10138 10142 10148 10156 10163 10171 10177 10190 10201
10486 10473 10464 10451 10439 10427 10413 10396 10380 10361 10339 10318 10295 10275 10256 10235 10220 10206 10188 10172 10150 10139 10135 10131 10126 10114 10118 10117 10118 10120 10124 10128 10134 10143 10150 10159 10171 10182
10470 10459 10446 10436 10424 10411 10397 10384 10367 10350 10333 10313 10287 10259 10234 10213 10193 10177 10169 10157 10142 10123 10118 10114 10115 10107 10094 10108 10104 10106 10108 10111 10117 10124 10133 10142 10150 10162
10451 10441 10431 10420 10407 10394 10381 10368 10354 10339 10317 10293 10267 10242 10224 10203 10177 10159 10144 10140 10129 10116 10107 10100 10099 10096 10092 10087 10094 10091 10094 10097 10102 10108 10115 10123 10135 10145
10437 10426 10416 10404 10392 10380 10365 10351 10336 10319 10296 10273 10249 10225 10211 10195 10170 10148 10132 10121 10116 10107 10095 10089 10086 10084 10079 10080 10079 10081 10081 10085 10089 10094 10100 10109 10118 10129
10424 10413 10403 10390 10377 10363 10349 10334 10318 10301 10282 10261 10234 10209 10193 10177 10159 10139 10122 10109 10102 10097 10088 10079 10075 10073 10071 10069 10069 10071 10072 10073 10078 10082 10088 10098 10108 10119
10410 10400 10389 10377 10364 10350 10335 10319 10304 10286 10267 10246 10219 10199 10179 10159 10144 10128 10114 10101 10089 10080 10079 10073 10066 10064 10061 10061 10060 10061 10063 10063 10068 10073 10078 10086 10093 10103
10395 10385 10374 10361 10347 10333 10319 10305 10289 10272 10254 10229 10202 10183 10169 10150 10130 10116 10103 10091 10083 10073 10065 10062 10060 10055 10053 10051 10052 10053 10054 10056 10059 10064 10069 10075 10084 10094
10380 10370 10359 10347 10334 10321 10307 10292 10276 10259 10240 10215 10190 10171 10155 10139 10121 10105 10092 10083 10073 10066 10058 10053 10050 10048 10045 10044 10044 10045 10047 10049 10052 10057 10062 10067 10076 10085
10366 10356 10346 10334 10321 10308 10294 10280 10265 10247 10227 10200 10175 10159 10142 10126 10110 10097 10083 10073 10065 10058 10052 10046 10042 10040 10039 10037 10037 10038 10040 10042 10045 10051 10055 10061 10068 10077
10352 10342 10332 10320 10307 10294 10281 10266 10250 10233 10210 10185 10164 10146 10128 10112 10101 10086 10077 10065 10057 10049 10045 10040 10035 10033 10032 10031 10032 10032 10034 10037 10040 10045 10049 10055 10062 10070
10338 10329 10318 10306 10293 10281 10267 10251 10236 10218 10195 10171 10152 10134 10119 10103 10089 10077 10067 10059 10050 10043 10037 10033 10029 10027 10026 10025 10026 10027 10029 10031 10035 10039 10044 10049 10056 10063
10324 10315 10304 10292 10279 10267 10252 10237 10221 10203 10180 10158 10140 10123 10107 10093 10081 10069 10058 10051 10043 10037 10031 10026 10024 10021 10020 10020 10020 10022 10024 10026 10030 10034 10039 10043 10049 10056
10309 10299 10289 10277 10265 10252 10237 10223 10207 10188 10166 10146 10129 10112 10097 10084 10071 10061 10051 10043 10037 10030 10026 10022 10018 10016 10014 10014 10015 10016 10018 10021 10024 10028 10033 10037 10043 10050